This is the latest recevied weather packets stored in our database for station/object OE3PDB-3. If no packets are shown the sender has not sent any weather packets the latest 10 day(s).
| Time | Temp. | Humidity | Pressure | Rain* | Wind** | Luminosity | Snow |
|---|---|---|---|---|---|---|---|
| 1787652029 | 21.11° C | 51% | 1011.4 hPa | 0 mm | - | - | - |
| 1787651430 | 21.11° C | 51% | 1011.7 hPa | 0 mm | - | - | - |
| 1787650830 | 21.11° C | 52% | 1011.8 hPa | 0 mm | - | - | - |
| 1787650230 | 21.11° C | 52% | 1011.8 hPa | 0 mm | - | - | - |
| 1787649630 | 20.56° C | 53% | 1011.8 hPa | 0 mm | - | - | - |
| 1787649030 | 20.56° C | 54% | 1011.7 hPa | 0 mm | - | - | - |
| 1787648430 | 20° C | 55% | 1011.8 hPa | 0 mm | - | - | - |
| 1787647830 | 20° C | 56% | 1011.8 hPa | 0 mm | - | - | - |
| 1787647230 | 20° C | 56% | 1011.9 hPa | 0 mm | - | - | - |
| 1787646630 | 19.44° C | 56% | 1012 hPa | 0 mm | - | - | - |
| 1787646030 | 19.44° C | 56% | 1012 hPa | 0 mm | - | - | - |
| 1787645430 | 20° C | 56% | 1012 hPa | 0 mm | - | - | - |
| 1787644830 | 19.44° C | 56% | 1012.1 hPa | 0 mm | - | - | - |
| 1787644230 | 19.44° C | 57% | 1012 hPa | 0 mm | - | - | - |
| 1787643630 | 18.89° C | 58% | 1012 hPa | 0 mm | - | - | - |
| 1787643030 | 18.89° C | 59% | 1012.1 hPa | 0 mm | - | - | - |
| 1787642430 | 18.89° C | 59% | 1012 hPa | 0 mm | - | - | - |
| 1787641830 | 18.33° C | 60% | 1011.8 hPa | 0 mm | - | - | - |
| 1787641230 | 17.78° C | 61% | 1011.8 hPa | 0 mm | - | - | - |
| 1787640630 | 17.22° C | 62% | 1012 hPa | 0 mm | - | - | - |
| 1787640030 | 16.67° C | 63% | 1011.9 hPa | 0 mm | - | - | - |
| 1787639430 | 16.67° C | 63% | 1012 hPa | 0 mm | - | - | - |
| 1787638830 | 16.67° C | 64% | 1012.1 hPa | 0 mm | - | - | - |
| 1787638230 | 16.11° C | 64% | 1012.2 hPa | 0 mm | - | - | - |
| 1787637630 | 16.11° C | 65% | 1012.2 hPa | 0 mm | - | - | - |
* Rain latest hour (hover to see other rain measurements)
** Current wind speed in m/s (hover to see current wind gust speed)